Date,TemperatureHighF,TemperatureAvgF,TemperatureLowF,DewpointHighF,DewpointAvgF,DewpointLowF,HumidityHigh,HumidityAvg,HumidityLow,PressureMaxIn,PressureMinIn,WindSpeedMaxMPH,WindSpeedAvgMPH,GustSpeedMaxMPH,PrecipitationSumIn
2013-5-1,72,59,43,40,32,17,75,40,14,30.47,30.35,8,2,15,0.00
2013-5-2,82,58,48,48,41,29,83,58,15,30.47,30.35,8,2,18,0.00
2013-5-3,63,52,44,44,41,39,87,67,48,30.50,30.36,8,2,15,0.00
2013-5-4,62,51,43,45,41,38,88,68,45,30.36,30.30,6,2,13,0.02
2013-5-5,64,51,38,44,40,36,98,69,37,30.32,30.24,6,2,12,0.00
2013-5-6,68,53,42,52,46,41,99,79,47,30.27,30.14,6,1,11,0.00
2013-5-7,80,65,47,59,52,45,97,64,36,30.16,30.07,6,2,13,0.00
2013-5-8,73,62,57,63,58,55,97,84,63,30.19,30.03,8,2,16,0.25
2013-5-9,76,60,56,64,58,56,99,94,58,30.03,29.87,5,1,11,2.69
2013-5-10,87,68,56,61,57,55,99,73,35,29.93,29.86,6,1,10,2.83
2013-5-11,76,66,60,63,59,54,93,79,58,29.90,29.66,3,0,7,0.00
2013-5-12,81,64,52,61,51,27,95,67,29,29.78,29.53,1,0,3,0.70
2013-5-13,69,55,45,33,27,21,58,36,16,30.01,29.78,0,0,2,0.00
2013-5-14,67,53,42,35,28,20,67,42,18,30.02,29.94,0,0,2,0.00
2013-5-15,73,57,41,53,38,22,88,55,17,30.03,29.65,1,0,2,0.00
2013-5-16,89,72,52,52,39,24,94,41,12,29.77,29.59,0,0,2,0.00
2013-5-17,74,63,54,46,41,30,67,47,24,30.19,29.78,4,0,7,0.00
2013-5-18,78,64,48,50,44,35,87,53,22,30.29,30.19,1,0,2,0.00
2013-5-19,81,60,52,56,50,47,98,72,36,30.33,30.20,5,0,10,0.00
2013-5-20,92,70,56,64,61,56,99,75,40,30.20,29.88,2,0,4,0.00
2013-5-21,80,63,53,63,57,51,95,83,54,29.99,29.85,3,0,5,0.00
2013-5-22,73,58,51,59,54,50,98,86,60,30.03,29.86,3,0,4,0.00
2013-5-23,82,66,54,69,60,54,99,85,61,29.91,29.81,2,0,3,0.00
2013-5-24,62,54,50,60,53,50,98,95,93,29.80,29.72,2,0,4,0.00
2013-5-25,55,49,43,51,48,38,99,93,84,29.79,29.66,2,0,4,0.00
2013-5-26,64,51,41,44,39,34,94,66,35,30.07,29.67,0,0,2,0.00
2013-5-27,82,63,43,45,36,24,86,44,13,30.15,30.04,0,0,1,0.00
2013-5-28,77,64,47,53,46,35,87,57,28,30.22,30.13,0,0,1,0.00
2013-5-29,81,65,59,66,60,52,98,85,55,30.17,29.96,2,0,3,0.00
2013-5-30,97,79,64,68,66,63,99,67,36,30.05,29.96,1,0,2,0.00
2013-5-31,103,87,69,69,66,62,87,53,28,30.05,29.89,0,0,1,0.00